EHI
20 17 13 9 6 3 1 0 1 2 3 3 3 3 3 3 3 3 3 3 3 5 7 6 3 1 0 0 1 2 3 4 3 2 2 2 1 1 1 0 0 0 0
19 16 14 11 7 4 2 1 0 1 3 3 3 3 3 3 3 3 3 3 3 3 5 5 2 0 0 0 0 1 2 2 2 1 1 1 1 2 2 1 0 0 0
16 14 14 14 10 6 4 2 2 2 3 4 3 3 3 3 3 3 3 3 2 2 3 4 2 0 0 0 0 1 2 2 1 0 0 0 1 3 3 1 1 0 0
14 12 14 17 14 10 7 5 4 3 3 3 3 3 3 3 3 3 3 3 2 2 3 3 2 0 0 0 1 2 3 3 2 1 0 0 1 4 4 2 2 1 0
14 14 16 19 18 15 10 7 5 3 2 3 3 3 3 3 4 3 4 3 2 2 4 3 2 0 0 0 1 2 3 3 2 1 0 0 2 5 5 4 4 2 1
17 16 17 19 20 17 13 9 6 4 4 3 3 3 3 4 4 4 4 3 1 1 3 4 2 1 0 0 1 1 2 2 1 1 0 0 3 6 7 6 5 3 1
19 17 17 20 21 18 13 9 7 5 5 5 4 4 5 6 6 5 5 4 3 3 5 7 6 4 2 2 2 3 3 3 2 1 1 1 4 8 8 7 5 3 1
18 16 17 20 21 19 14 10 8 5 4 5 5 5 5 6 7 6 6 6 7 7 9 10 10 7 5 5 6 5 6 6 4 2 1 2 5 8 9 8 5 3 2
13 13 13 14 16 16 14 11 8 5 4 5 7 7 7 6 6 6 6 8 9 9 9 10 10 8 7 7 7 7 8 8 5 2 1 3 7 9 8 7 5 2 1
8 8 8 10 11 11 10 9 8 7 6 8 10 12 12 10 8 8 9 11 11 9 8 9 9 8 6 6 7 7 7 6 3 2 3 7 9 8 6 5 5 2 0
6 6 6 8 8 7 7 8 9 9 9 11 13 16 16 13 11 10 12 15 14 11 10 11 11 9 6 5 5 6 5 3 2 3 6 10 11 7 4 4 5 3 1
5 5 6 6 6 5 6 8 9 10 12 13 13 15 14 12 10 10 12 16 16 13 11 12 12 9 5 3 4 5 5 3 1 2 7 12 13 10 6 6 6 5 2
4 4 6 8 8 8 7 6 7 9 12 12 11 12 11 10 8 8 10 14 15 13 11 12 11 7 4 3 4 6 7 5 2 1 6 13 15 13 10 9 8 6 4
3 4 7 12 16 16 13 8 6 8 9 8 9 10 10 10 9 9 10 12 13 12 12 12 10 6 3 3 5 7 8 6 2 2 7 13 15 15 15 13 11 8 6
4 5 9 16 22 24 21 15 9 8 8 8 9 10 10 10 11 11 11 12 12 10 11 12 10 6 4 4 4 5 6 5 4 4 7 12 17 18 17 16 14 12 9
8 11 15 19 23 25 23 18 12 9 9 9 11 13 12 12 13 13 13 13 12 9 9 10 9 7 5 4 3 3 3 4 5 5 6 11 17 18 16 15 14 12 10
17 18 18 19 21 22 21 17 11 8 7 8 12 15 15 15 16 16 15 14 13 10 9 10 10 9 6 4 3 2 3 6 7 6 6 9 13 15 15 14 13 12 10
26 24 19 18 21 21 19 15 9 6 6 8 13 17 18 20 20 19 18 18 15 13 12 11 11 10 7 5 3 3 5 9 9 7 6 8 10 12 14 14 15 14 13
32 28 24 23 25 24 22 17 11 7 8 10 14 17 19 20 22 23 23 21 18 15 12 10 10 10 8 6 4 4 7 9 9 8 8 9 11 14 13 13 14 15 14
36 34 30 29 29 26 25 23 17 12 12 14 17 19 20 20 22 24 24 23 19 15 12 11 10 10 10 8 6 5 6 8 9 9 10 11 12 14 13 12 12 12 11
41 40 36 32 32 28 26 25 20 18 18 18 20 21 20 21 21 22 22 21 18 14 13 13 12 11 10 9 7 6 6 7 9 10 12 13 12 13 15 15 15 15 14
44 42 37 35 34 30 26 23 20 19 20 20 21 21 22 21 20 21 21 19 16 14 13 15 15 12 9 9 8 7 6 6 7 10 12 13 13 13 15 18 20 21 21
46 44 41 40 37 32 26 21 19 19 19 20 20 22 23 23 20 20 22 22 19 16 14 15 15 12 10 9 9 9 8 7 7 8 10 11 13 14 13 15 19 22 23
45 47 50 49 44 35 27 22 21 20 20 19 20 24 26 24 21 20 22 24 23 20 17 15 14 14 12 11 10 10 10 9 7 7 7 9 12 14 13 12 14 19 22
45 49 53 53 48 40 32 27 25 23 20 18 18 22 25 24 22 22 24 26 26 24 20 17 17 16 14 12 11 10 11 11 9 7 7 8 11 13 13 12 13 18 21
46 49 52 52 48 41 34 31 28 24 20 15 15 19 22 24 25 25 27 29 28 25 22 20 20 18 14 13 11 10 11 12 11 9 7 7 9 11 13 14 15 17 18
Wind_Speed
9 11 11 11 10 10 9 9 9 10 10 11 10 10 10 9 9 10 10 10 10 10 10 9 9 8 8 8 8 8 8 7 7 7 8 8 8 8 7 6 6 5 8
11 13 13 11 10 10 9 9 9 10 11 11 10 10 9 9 9 9 10 9 9 9 9 9 8 8 7 7 8 8 7 6 6 6 7 7 7 7 6 6 5 5 8
13 13 12 11 10 9 9 9 9 10 11 11 10 9 9 9 9 9 9 9 9 9 9 8 8 7 7 7 7 8 7 6 5 5 5 4 5 7 6 7 7 7 7
13 12 11 11 10 10 10 10 11 11 12 11 11 10 9 9 9 9 9 9 8 8 8 7 7 7 7 7 7 7 7 6 5 5 3 3 5 8 7 7 7 7 7
13 12 12 12 11 11 11 12 12 13 12 11 11 10 9 9 8 8 8 8 8 8 7 6 6 6 6 7 7 6 6 5 5 4 1 3 4 8 7 7 7 6 6
13 13 12 12 11 11 12 12 12 13 12 11 10 10 9 8 8 7 7 8 8 8 7 6 6 6 6 6 6 6 5 5 5 3 3 4 5 7 8 7 7 7 6
13 13 12 12 11 10 11 11 12 12 11 10 10 9 8 7 7 6 6 7 7 7 7 6 6 6 5 5 6 6 6 6 5 3 4 5 5 8 8 6 7 6 6
13 13 12 12 11 10 11 11 11 11 10 9 9 8 7 6 6 5 6 6 6 7 6 6 5 5 6 6 6 6 6 5 4 3 4 5 7 8 7 6 5 5 5
12 12 10 10 10 10 10 10 10 10 9 9 8 7 6 6 6 6 6 6 6 7 7 6 5 6 6 6 7 7 7 6 3 2 5 5 8 8 7 6 5 5 5
9 10 10 9 9 9 9 10 10 10 8 8 7 5 5 5 6 7 6 6 7 7 7 6 6 5 6 6 7 7 7 5 4 2 4 6 9 8 7 6 6 6 5
8 8 8 8 7 8 8 9 9 9 8 7 5 5 4 3 4 5 6 8 7 7 7 7 7 6 6 6 7 7 5 3 2 2 4 9 10 8 7 6 6 5 5
8 8 6 7 6 6 6 6 5 5 5 4 3 2 2 2 2 5 8 8 7 6 7 7 6 5 5 3 6 6 3 3 3 3 5 11 10 9 7 7 7 6 6
8 7 7 6 6 5 4 4 3 2 3 3 3 2 1 1 2 3 3 4 4 4 3 4 4 3 3 2 2 3 2 1 2 3 6 11 9 8 8 8 7 6 6
8 7 7 6 5 4 3 2 3 3 3 3 3 2 1 1 2 2 1 2 2 1 2 2 1 1 1 1 2 2 2 1 2 3 5 10 9 9 9 8 8 8 7
8 7 6 6 5 4 3 1 3 3 3 3 3 2 1 1 2 2 1 1 1 1 2 1 1 1 1 1 1 1 1 1 1 3 4 10 10 9 9 9 8 7 8
8 7 6 7 6 4 2 1 1 3 3 3 3 3 1 1 2 2 1 0 1 1 1 1 1 1 1 1 2 2 2 2 2 3 4 7 11 10 10 9 9 8 8
8 7 5 7 6 4 2 1 1 2 4 3 3 3 2 2 2 2 1 1 1 0 0 1 1 1 2 2 2 2 2 3 3 3 4 4 6 9 10 10 10 9 9
8 6 4 5 6 5 2 1 1 2 3 2 3 3 2 2 2 2 1 1 1 1 1 1 1 1 1 1 1 2 2 2 4 4 4 4 5 5 8 10 10 9 10
8 7 4 3 5 4 3 1 1 2 2 2 2 3 3 2 1 1 1 1 1 1 0 0 1 0 1 1 2 2 1 2 3 4 4 4 4 5 5 8 10 9 9
8 7 5 4 4 3 3 2 1 1 1 2 2 2 2 2 2 1 1 1 0 1 1 0 0 1 1 1 2 1 1 2 3 2 3 3 3 5 5 6 6 6 8
8 7 6 4 4 3 2 2 2 2 1 2 2 3 2 2 1 1 1 1 1 1 1 0 1 1 1 1 1 1 1 2 2 2 2 2 2 3 4 5 5 4 4
9 8 6 5 4 3 2 2 2 2 1 2 2 3 2 2 1 2 2 1 1 1 1 1 0 1 2 1 0 1 1 1 1 2 2 2 3 2 2 4 4 4 3
8 8 6 5 5 3 3 2 2 2 1 2 2 2 2 2 1 1 1 0 0 1 1 1 0 1 1 1 0 0 1 1 1 1 1 1 1 2 2 3 4 4 4
9 8 7 6 4 3 3 2 3 2 2 1 1 2 2 1 1 1 1 0 1 1 1 1 1 1 1 2 1 1 1 0 1 1 1 0 1 1 2 2 2 3 4
9 9 8 6 4 4 3 3 2 2 1 1 1 2 1 1 1 1 1 1 0 0 1 1 1 1 1 2 2 2 1 1 2 1 1 1 1 0 1 1 1 1 2
9 9 9 7 5 4 4 3 2 2 1 1 1 1 1 1 1 1 2 1 1 1 1 1 1 1 1 2 2 2 1 1 1 1 2 1 1 1 1 1 1 2 2
Wind_Direction
92 100 106 101 99 98 96 99 103 109 109 105 104 106 106 108 110 112 117 117 120 122 122 124 125 124 123 121 119 117 114 113 111 111 113 116 119 120 119 121 129 123 122
97 101 105 102 100 97 96 98 103 109 110 107 106 107 108 110 115 117 118 119 120 121 120 122 125 124 124 126 128 124 124 129 125 124 127 124 123 120 120 118 112 116 117
102 107 106 100 98 94 95 98 104 112 112 108 106 107 108 111 114 117 121 121 121 122 122 123 126 128 130 134 135 136 144 151 147 152 152 142 129 126 124 118 116 123 125
107 109 106 103 97 91 92 99 103 110 112 109 106 108 105 108 111 116 119 122 122 123 126 127 132 136 139 140 140 144 157 167 172 186 188 158 139 133 136 130 129 136 136
104 104 108 108 101 96 94 100 105 108 109 109 109 108 107 107 111 115 122 126 129 132 137 140 140 142 146 147 149 157 167 180 196 215 181 125 119 140 141 142 148 149 144
107 106 113 111 105 103 101 100 103 107 108 110 112 112 110 112 115 120 127 134 140 144 144 146 148 153 157 160 166 176 188 201 219 220 152 129 128 142 146 153 157 156 153
110 113 119 117 112 109 107 107 109 111 112 113 113 112 113 117 118 123 132 137 143 147 152 154 159 163 168 181 191 197 207 220 227 211 131 121 133 147 152 158 159 162 163
111 117 122 122 119 115 114 114 114 115 116 116 116 120 122 124 125 127 132 139 144 150 153 156 165 174 187 200 209 213 221 234 226 181 134 121 137 145 153 158 158 159 164
111 118 127 133 133 131 125 121 122 120 119 119 117 123 131 133 137 135 134 135 141 151 157 164 170 187 197 208 220 222 224 231 252 217 137 123 138 145 152 153 159 158 162
113 119 127 130 132 138 136 134 133 132 132 131 129 138 143 141 144 144 141 141 143 152 160 169 175 185 196 212 220 224 233 240 226 197 123 132 142 146 155 162 167 163 164
111 116 120 125 128 135 136 136 144 147 146 149 149 166 165 163 154 148 133 143 150 159 167 173 176 186 199 212 219 228 239 225 187 137 120 137 148 153 162 170 170 172 178
125 121 117 118 122 125 125 135 153 151 144 150 132 153 180 152 118 126 136 147 152 167 175 180 185 193 207 206 206 216 228 205 156 137 130 146 153 161 170 176 178 180 188
126 118 122 123 119 114 117 130 137 136 140 143 124 127 101 88 100 113 138 149 163 170 170 170 190 204 196 181 192 200 205 208 152 129 144 158 163 171 179 183 185 189 195
118 117 117 110 100 89 93 124 139 132 134 135 127 114 114 99 79 80 91 137 164 153 151 160 181 199 149 191 204 202 201 194 137 126 153 165 170 176 181 185 190 194 197
119 117 111 108 101 91 83 89 123 123 124 117 118 115 97 119 109 99 82 75 133 128 140 142 177 188 175 229 237 209 188 190 141 138 153 174 177 181 185 188 193 200 200
122 120 123 122 114 110 112 99 113 129 124 115 125 130 157 128 106 109 123 131 39 33 89 146 191 181 206 226 238 222 208 196 173 163 162 177 184 186 190 193 195 197 198
123 122 126 128 121 126 139 164 128 122 120 124 132 129 133 127 123 127 137 128 116 197 139 165 233 206 210 222 232 227 214 195 183 181 184 175 180 191 195 198 198 197 200
126 122 129 132 130 134 131 119 91 95 114 130 130 125 115 113 129 140 142 142 175 184 177 183 213 254 249 248 256 247 213 193 182 191 194 183 173 182 192 196 193 200 206
127 128 130 111 120 129 132 130 121 96 103 110 112 122 128 125 127 144 126 138 180 161 167 252 57 323 288 289 266 231 220 196 192 195 190 187 175 170 170 183 192 202 206
132 133 137 131 120 133 141 142 139 113 123 117 111 106 117 130 137 125 138 168 150 91 62 51 341 298 277 267 274 268 235 213 206 181 194 177 163 169 170 172 186 200 204
138 140 142 145 138 141 147 166 163 162 164 140 121 115 116 123 136 137 115 157 144 129 146 302 308 293 270 259 293 312 268 219 174 155 184 175 169 179 169 168 180 184 195
149 149 150 150 145 146 153 166 167 153 158 123 107 118 127 154 176 170 158 200 162 147 169 227 321 301 303 310 319 326 320 331 336 187 184 193 180 173 170 181 178 173 185
151 154 150 143 145 152 169 164 148 133 130 126 145 134 145 161 155 109 133 271 277 180 168 212 213 247 298 313 353 180 269 267 301 284 208 182 161 156 183 195 185 175 190
152 147 135 137 141 149 164 160 166 154 153 156 133 122 147 156 152 152 144 103 348 13 31 298 81 306 295 299 296 249 245 236 233 298 293 237 185 182 199 204 193 180 186
154 147 141 135 140 147 154 157 162 146 140 118 108 118 147 147 158 173 125 125 105 38 355 4 11 337 331 310 310 303 300 276 226 224 266 294 327 264 205 227 206 182 180
152 149 147 144 149 152 154 149 142 137 129 122 129 155 196 165 163 142 123 104 89 48 2 351 318 307 307 318 312 306 304 291 290 259 251 260 245 255 226 224 212 181 171